Find Starlink 32155

NORAD ID: 60274 Int'l Des: 2024-131 Owner: SPXS Country: US Constellation: starlink operational
LEOCIRCULAR

Current View

Loading 3D Globe...

About Starlink 32155

Starlink 32155 (NORAD 60274) is a starlink constellation satellite (v2 mini) launched Jul 27, 2024 by SPXS of US. It operates in LEO, CIRCULAR orbit with a mass of 730.00 kg.

Upcoming Passes

Passes for default location (London). Set your location on the main map for personalized predictions.

Altitude History

Loading altitude history...

Two-Line Element Set

1 60274U 24131V 26253.33749946 .00001174 00000-0 49596-4 0 9993
2 60274 53.1606 273.7263 0001331 73.4167 286.6981 15.31700045119904
Epoch: Sep 10, 2026 • Age: 26 hours

Current Status

Altitude 487.0 km
Apogee / Perigee N/A
Velocity 7.62 km/s
Sub-Earth Point -45.41°S, 5.86°W
Launch Date Jul 27, 2024
Age 2.1 years
Type internet

Technical Details

Classification Payload
Mass 730.00 kg
Dry Mass 700.00 kg
Total Mass 730.00 kg
Length 0.30 m
Diameter 4.10 m
Span 29.00 m
Shape Box + pan
Manufacturer SPXS
Bus Type Starlink V2M
Phase Status In Orbit
Owner/State SPXS/US

Most Searched